Tracking 31027 objects as of 19-Jul-2025
HD Live streaming from Space Station
objects crossing your sky now

FREGAT R/B

Track FREGAT R/B now!


NORAD ID: 44300
Int'l Code: 2019-030B
Perigee: 19,281.9 km
Apogee: 19,652.8 km
Inclination: 64.3 °
Period: 688.9 minutes
Semi major axis: 25838 km
RCS: Unknown
Launch date: May 27, 2019
Source: Commonwealth of Independent States (former USSR) (CIS)
Launch site: PLESETSK MISSILE AND SPACE COMPLEX (PKMTR)

Note: This is a ROCKET BODY
Your satellite tracking list
STARLINK-3957
Track 1 satellite(s)




NASA's NSSDC Master Catalog

Two Line Element Set (TLE):
1 44300U 19030B   25198.56496723  .00000115  00000-0  00000+0 0  9997
2 44300  64.3050 206.9031 0071781 135.9964 224.6132  2.09028723 46893
Source of the keplerian elements: AFSPC